This demonstration page uses our WeatherBlox Daily Observations layout. Learn more.

Left ArrowRight Arrow

39.51506, -84.39828

Hourly Observations for April 28, 2019

Temp ( °F °C ) Dew Point ( °F °C ) Humidity (%) Winds ( mph kmh ) Pressure ( in mb ) Visibility ( mi km ) Precip ( " mm )
12:15 am 00:15 Cloudy 51 10.3 47 8.1 86 86 SSE 6 9 29.69 1005 10 16 0.00 0.00
12:35 am 00:35 Cloudy 51 10.7 46 7.8 82 82 S 7 11 29.68 1005 10 16 0.00 0.00
12:55 am 00:55 Mostly Cloudy with Nearby Thunderstorms 52 10.9 46 7.6 80 80 S 10 17 29.67 1005 10 16 0.00 0.00
1:15 am 01:15 Cloudy 52 11.1 47 8.2 82 82 WSW 5 7 29.70 1006 10 16 0.01 0.25
1:35 am 01:35 Cloudy with Light Rain 51 10.7 47 8.4 86 86 SSW 8 13 29.70 1006 7 11 0.02 0.51
1:55 am 01:55 Cloudy with Light Rain 51 10.4 48 8.9 91 91 NNW 9 15 29.72 1006 10 16 0.04 1.02
2:15 am 02:15 Cloudy 50 10.1 48 9.1 94 94 NNW 5 7 29.72 1006 10 16 0.00 0.00
2:35 am 02:35 Cloudy 50 10 48 9 94 94 N 6 9 29.72 1006 10 16 0.00 0.00
2:55 am 02:55 Cloudy 50 10 48 9.1 94 94 N 5 7 29.73 1007 10 16 0.00 0.00
3:15 am 03:15 Cloudy 50 10 48 9 94 94 NNE 6 9 29.73 1007 10 16 0.00 0.00
3:35 am 03:35 Cloudy 50 10.1 48 9 93 93 NE 5 7 29.73 1007 10 16 0.00 0.00
3:55 am 03:55 Cloudy 50 10.1 48 9 93 93 NNE 3 6 29.73 1007 10 16 0.00 0.00
4:15 am 04:15 Cloudy 50 10 49 9.2 95 95 Calm 29.75 1007 10 16 0.00 0.00
4:35 am 04:35 Cloudy 50 9.9 48 9.1 95 95 Calm 29.77 1008 10 16 0.00 0.00
4:55 am 04:55 Cloudy 50 9.8 48 9 95 95 NNW 7 11 29.78 1008 10 16 0.00 0.00
5:15 am 05:15 Cloudy 50 9.8 48 8.9 94 94 NNW 7 11 29.79 1009 10 16 0.00 0.00
5:35 am 05:35 Cloudy 49 9.7 48 8.7 94 94 NNW 10 17 29.81 1009 10 16 0.00 0.00
5:55 am 05:55 Cloudy 49 9.2 46 8 92 92 NNW 12 19 29.84 1011 10 16 0.00 0.00
6:15 am 06:15 Cloudy 47 8.6 45 7.3 92 92 NNW 13 20 29.87 1012 10 16 0.00 0.00
6:35 am 06:35 Cloudy 47 8.2 44 6.9 92 92 N 13 20 29.88 1012 10 16 0.00 0.00
6:55 am 06:55 Cloudy 46 7.7 44 6.4 92 92 NNW 15 24 29.91 1013 10 16 0.00 0.00
7:15 am 07:15 Cloudy 45 7.4 42 5.8 90 90 N 12 19 29.95 1014 10 16 0.00 0.00
7:35 am 07:35 Cloudy 44 6.9 41 5.2 89 89 N 12 19 29.97 1015 10 16 0.00 0.00
7:55 am 07:55 Cloudy 44 6.4 41 4.9 90 90 N 14 22 30.00 1016 10 16 0.00 0.00
8:15 am 08:15 Cloudy 44 6.4 40 4.4 87 87 N 10 17 30.02 1017 10 16 0.00 0.00
8:35 am 08:35 Cloudy 44 6.5 40 4.4 87 87 N 13 20 30.03 1017 10 16 0.00 0.00
8:55 am 08:55 Cloudy 44 6.5 40 4.2 85 85 N 12 19 30.04 1017 10 16 0.00 0.00
9:15 am 09:15 Cloudy 44 6.8 40 4.5 85 85 N 10 17 30.07 1018 10 16 0.00 0.00
9:35 am 09:35 Cloudy 44 6.9 40 4.3 84 84 N 13 20 30.09 1019 10 16 0.00 0.00
9:55 am 09:55 Cloudy 45 7.1 40 4.5 84 84 N 14 22 30.10 1019 10 16 0.00 0.00
10:15 am 10:15 Cloudy 45 7.1 40 4.5 84 84 N 12 19 30.12 1020 10 16 0.00 0.00
10:35 am 10:35 Cloudy 45 7.2 40 4.4 83 83 N 10 17 30.13 1020 10 16 0.00 0.00
10:55 am 10:55 Cloudy 45 7.4 40 4.5 82 82 N 12 19 30.15 1021 10 16 0.00 0.00
11:15 am 11:15 Cloudy 45 7.4 40 4.3 81 81 N 12 19 30.15 1021 10 16 0.00 0.00
11:35 am 11:35 Cloudy 46 8 40 4.5 79 79 NNE 12 19 30.15 1021 10 16 0.00 0.00
11:55 am 11:55 Cloudy 45 7.1 40 4.7 85 85 N 12 19 30.17 1022 10 16 0.00 0.00
12:15 pm 12:15 Cloudy 46 7.5 41 4.9 84 84 N 9 15 30.18 1022 10 16 0.00 0.00
12:35 pm 12:35 Cloudy 46 8 41 5 82 82 N 7 11 30.18 1022 10 16 0.00 0.00
12:55 pm 12:55 Mostly Cloudy 49 9.3 40 4.4 72 72 NNE 9 15 30.18 1022 10 16 0.00 0.00
1:15 pm 13:15 Cloudy 50 9.9 39 4.1 67 67 NNE 12 19 30.18 1022 10 16 0.00 0.00
1:35 pm 13:35 Cloudy 51 10.5 41 4.8 68 68 N 6 9 30.18 1022 10 16 0.00 0.00
1:55 pm 13:55 Cloudy 52 11.1 41 5 66 66 N 9 15 30.18 1022 10 16 0.00 0.00
2:15 pm 14:15 Cloudy 52 11.2 41 4.8 65 65 NNE 10 17 30.19 1022 10 16 0.00 0.00
2:35 pm 14:35 Cloudy 53 11.7 41 4.8 63 63 N 8 13 30.18 1022 10 16 0.00 0.00
2:55 pm 14:55 Cloudy 53 11.9 40 4.7 62 62 NNE 8 13 30.19 1022 10 16 0.00 0.00
3:15 pm 15:15 Cloudy 53 11.8 41 4.9 63 63 NE 7 11 30.19 1022 10 16 0.00 0.00
3:35 pm 15:35 Cloudy 54 12 40 4.7 61 61 N 13 20 30.20 1023 10 16 0.00 0.00
3:55 pm 15:55 Cloudy 53 11.9 40 4.4 60 60 NNE 12 19 30.20 1023 10 16 0.00 0.00
4:15 pm 16:15 Mostly Cloudy 55 12.6 41 4.8 59 59 NNE 7 11 30.20 1023 10 16 0.00 0.00
4:35 pm 16:35 Cloudy 54 12.1 39 4.1 58 58 ENE 8 13 30.20 1023 10 16 0.00 0.00
4:55 pm 16:55 Mostly Cloudy 54 12.2 40 4.6 60 60 N 6 9 30.20 1023 10 16 0.00 0.00
5:15 pm 17:15 Mostly Cloudy 54 12.3 39 4 57 57 NE 9 15 30.20 1023 10 16 0.00 0.00
5:35 pm 17:35 Cloudy 54 12.3 39 3.7 56 56 ENE 7 11 30.20 1023 10 16 0.00 0.00
5:55 pm 17:55 Cloudy 54 12.4 39 4.1 57 57 ENE 7 11 30.20 1023 10 16 0.00 0.00
6:15 pm 18:15 Cloudy 55 12.5 39 4 56 56 E 7 11 30.20 1023 10 16 0.00 0.00
6:35 pm 18:35 Cloudy 55 12.5 40 4.4 58 58 NE 7 11 30.20 1023 10 16 0.00 0.00
6:55 pm 18:55 Cloudy 55 12.5 40 4.2 57 57 E 7 11 30.20 1023 10 16 0.00 0.00
7:15 pm 19:15 Partly Cloudy 54 12.2 40 4.3 59 59 ENE 7 11 30.20 1023 10 16 0.00 0.00
7:35 pm 19:35 Mostly Cloudy 55 12.6 40 4.2 57 57 ESE 6 9 30.20 1023 10 16 0.00 0.00
7:55 pm 19:55 Sunny 53 11.7 39 3.8 59 59 E 8 13 30.20 1023 10 16 0.00 0.00
8:15 pm 20:15 Sunny 52 11 39 3.9 62 62 E 6 9 30.21 1023 10 16 0.00 0.00
8:35 pm 20:35 Clear 50 10.1 39 3.9 66 66 E 5 7 30.22 1023 10 16 0.00 0.00
8:55 pm 20:55 Clear 49 9.4 39 3.9 69 69 E 5 7 30.23 1024 10 16 0.00 0.00
9:15 pm 21:15 Clear 47 8.5 40 4.5 76 76 Calm 30.23 1024 10 16 0.00 0.00
9:35 pm 21:35 Clear 44 6.8 42 5.3 90 90 Calm 30.25 1024 10 16 0.00 0.00
9:55 pm 21:55 Clear 44 6.9 42 5.3 90 90 Calm 30.24 1024 10 16 0.00 0.00
10:15 pm 22:15 Clear 43 5.9 41 4.8 93 93 N 3 6 30.26 1025 10 16 0.00 0.00
10:35 pm 22:35 Clear 43 6.1 41 5.2 94 94 Calm 30.27 1025 10 16 0.00 0.00
10:55 pm 22:55 Clear 43 6 41 5 93 93 Calm 30.27 1025 10 16 0.00 0.00
11:15 pm 23:15 Clear 43 5.9 40 4.5 91 91 NE 3 6 30.27 1025 10 16 0.00 0.00
11:35 pm 23:35 Clear 43 6.3 42 5.5 95 95 NE 3 6 30.27 1025 10 16 0.00 0.00
11:55 pm 23:55 Clear 43 5.9 41 4.9 93 93 Calm 30.27 1025 10 16 0.00 0.00

Powered by AerisWeather